Starlink 5910

operational
NORAD ID: 56000 Int'l Des: 2023-042 Owner: SPXS Country: US Constellation: starlink
LEOCIRCULAR

About Starlink 5910

Description loading...

Live Position

Loading 3D Globe...

Upcoming Passes

Altitude History

Altitude vs Time

uPlot chart will show altitude changes over time

Two-Line Element Set

1 56000U 23042Q 25302.99355280 .00002284 00000-0 18412-3 0 9990
2 56000 43.0027 45.9872 0001105 269.9417 90.1299 15.02523275143256
Epoch: Oct 29, 2025 • Age: 19 hours

Current Status

Altitude 558.7 km
Velocity 7.59 km/s
Sub-Earth Point 19.22°N, 97.32°E
Launch Date Mar 24, 2023
Age 2.6 years
Type internet

Technical Details

Classification Payload
Mass 305.00 kg
Dry Mass 290.00 kg
Total Mass 305.00 kg
Length 0.20 m
Diameter 2.80 m
Span 9.00 m
Shape Box + pan
Manufacturer SPXS
Bus Type Starlink
Phase Status In Orbit
Owner/State SPXS/US

Large Constellations

Loading constellations...